Cotulla, TX

3:29 PM CST on November 12, 2019 (GMT -0600)
Cotulla-La Salle County

Weather History for KCOT - August, 2019

Change the Weather History Date:

Friday, August 30, 2019

  Actual Average Record
Temperature  
Mean Temperature 90 °F -  
Max Temperature 104 °F 93 °F 104 °F (2011)
Min Temperature 78 °F 72 °F 66 °F (2017)
Cooling Degree Days 25    
Growing Degree Days 40 (Base 50)    
Moisture  
Dew Point 67 °F    
Average Humidity 54    
Maximum Humidity 90    
Minimum Humidity 22    
Precipitation  
Precipitation 0.00 in - - ()
Sea Level Pressure  
Sea Level Pressure 29.93 in    
Wind  
Wind Speed 8 mph ()    
Max Wind Speed 17 mph    
Max Gust Speed 24 mph    
Visibility 9.9 miles    
Events      
Averages and records for this station are not official NWS values.
T = Trace of Precipitation, MM = Missing Value Source: Averaged Metar Reports

Daily Weather History Graph

Daily Weather History Graph

Search for Another Location

Airport or City:

Astronomy

Aug. 30, 2019 Rise Set
Actual Time 7:14 AM CDT 8:00 PM CDT
Civil Twilight 6:49 AM CDT 8:24 PM CDT
Nautical Twilight 6:21 AM CDT 8:52 PM CDT
Astronomical Twilight 5:52 AM CDT 9:21 PM CDT
Moon 7:21 AM CDT (8/30) 8:37 PM CDT (8/30)
Length of Visible Light 13h 34m
Length of Day
12h 46m
New Moon, 0% of the Moon is Illuminated
Aug 30
New Moon
Sep 5
First Quarter
Sep 13
Full
Sep 21
Last Quarter
Sep 28
New

Hourly Weather History & Observations

Time (CDT) Temp. Heat Index Dew Point Humidity Pressure Visibility Wind Dir Wind Speed Gust Speed Precip Events Conditions
12:53 AM 84.0 °F 91.2 °F 73.9 °F 72% 29.95 in 10.0 mi SE 12.7 mph - N/A   Clear
1:53 AM 82.9 °F 89.4 °F 73.9 °F 74% 29.94 in 10.0 mi SSE 8.1 mph - N/A   Clear
2:53 AM 82.0 °F 88.6 °F 75.0 °F 79% 29.93 in 10.0 mi SSE 8.1 mph - N/A   Clear
3:53 AM 81.0 °F 86.7 °F 75.0 °F 82% 29.93 in 10.0 mi SSE 6.9 mph - N/A   Clear
4:53 AM 80.1 °F 85.1 °F 75.0 °F 85% 29.93 in 10.0 mi ESE 6.9 mph - N/A   Clear
5:53 AM 79.0 °F - 75.9 °F 90% 29.94 in 10.0 mi East 4.6 mph - N/A   Clear
6:53 AM 78.1 °F - 75.0 °F 90% 29.96 in 10.0 mi East 5.8 mph - N/A   Clear
7:53 AM 78.1 °F - 75.0 °F 90% 29.97 in 8.0 mi East 6.9 mph - N/A   Clear
8:53 AM 82.0 °F 88.6 °F 75.0 °F 79% 29.99 in 10.0 mi ESE 9.2 mph - N/A   Partly Cloudy
9:53 AM 86.0 °F 93.8 °F 73.9 °F 67% 29.99 in 10.0 mi SE 10.4 mph - N/A   Partly Cloudy
10:53 AM 89.1 °F 94.1 °F 70.0 °F 53% 29.98 in 10.0 mi SSE 9.2 mph - N/A   Clear
11:53 AM 93.9 °F 95.2 °F 63.0 °F 36% 29.97 in 10.0 mi SSE 10.4 mph 17.3 mph N/A   Clear
12:53 PM 96.1 °F 95.2 °F 57.9 °F 28% 29.95 in 10.0 mi Variable 6.9 mph - N/A   Clear
1:53 PM 98.1 °F 97.7 °F 59.0 °F 27% 29.93 in 10.0 mi South 4.6 mph 16.1 mph N/A   Clear
2:53 PM 100.0 °F 100.2 °F 59.0 °F 26% 29.90 in 10.0 mi North - - N/A   Scattered Clouds
3:53 PM 102.0 °F 101.6 °F 57.9 °F 23% 29.87 in 10.0 mi ESE 9.2 mph - N/A   Scattered Clouds
4:53 PM 100.0 °F 99.2 °F 57.0 °F 24% 29.86 in 10.0 mi SSE 6.9 mph - N/A   Partly Cloudy
5:53 PM 102.0 °F 101.1 °F 57.0 °F 22% 29.85 in 10.0 mi ENE 10.4 mph - N/A   Partly Cloudy
6:53 PM 100.0 °F 99.2 °F 57.0 °F 24% 29.84 in 10.0 mi East 12.7 mph - N/A   Clear
7:53 PM 96.1 °F 97.3 °F 63.0 °F 33% 29.86 in 10.0 mi ESE 17.3 mph 23.0 mph N/A   Clear
8:53 PM 91.9 °F 94.5 °F 66.0 °F 42% 29.89 in 10.0 mi SE 15.0 mph 24.2 mph N/A   Clear
9:53 PM 90.0 °F 92.8 °F 66.9 °F 46% 29.91 in 10.0 mi SE 12.7 mph - N/A   Clear
10:53 PM 88.0 °F 90.7 °F 66.9 °F 49% 29.93 in 10.0 mi SE 12.7 mph - N/A   Clear
11:53 PM 84.9 °F 88.2 °F 68.0 °F 57% 29.94 in 10.0 mi SE 12.7 mph - N/A   Clear